Location: Unspecified
(0.0000°N, 0.0000°E)
Time: 10:24:58
(UTC+00:00)

MIDAS 4 DEB - Pass Details

Date: 16 November 2025
Orbit: 3271 x 3959 km, 95.8° (Epoch: 26 July)

Event Time Altitude Azimuth Distance (km) Brightness Sun altitude
Exits shadow 20:03:27 45° 62° (ENE) 4,435 ? -32.5°
Maximum altitude 20:08:54 55° 104° (ESE) 4,198 ? -33.8°
Drops below altitude 10° 20:27:44 10° 176° (S) 7,039 ? -38.1°
Sets 20:32:30 0° 180° (S) 8,111 ? -39.2°
